Location: Clegg Observatory
(38.9178°N, 78.6069°W)
Time: 17:11:25
(UTC-04:00)

Daily predictions for brighter satellites

Satellite Brightness Start Highest point End
(mag) Time Altitude Azimuth Time Altitude Azimuth Time Altitude Azimuth
BREEZE-M DEB (TANK) 3.9 20:23:49 10° NW 20:28:48 33° NNE 20:31:12 10° E
Cosmos 1151 Rocket 4.0 20:25:43 10° SE 20:29:14 26° E 20:32:48 10° NNE
Cosmos 1666 Rocket 3.6 20:25:03 10° N 20:29:31 66° E 20:33:55 10° SSE
Cosmos 2341 Rocket 4.2 20:26:34 10° SSE 20:32:41 53° E 20:38:48 10° NNE
Meteor 2-21 Rocket 4.5 20:28:09 10° S 20:34:12 67° E 20:40:20 10° NNE
Sich 1 3.0 20:30:17 10° N 20:34:35 84° E 20:38:51 10° S
SL-16 R/B 3.5 20:31:28 10° SE 20:35:06 18° E 20:38:43 10° ENE
Envisat 3.0 20:31:23 10° SSE 20:36:27 80° ENE 20:41:33 10° N
Aureole 2 4.1 20:34:31 10° S 20:37:28 54° ESE 20:40:22 10° NNE
OAO 2 Rocket 4.4 20:35:01 10° W 20:39:46 35° SSW 20:44:27 10° SE
Cosmos 2251 Rocket 4.1 20:39:35 10° NNW 20:44:54 62° WSW 20:50:09 10° S
Resurs 1-3 4.0 20:41:10 10° SE 20:45:19 44° ENE 20:49:30 10° N
Cosmos 1408 3.6 20:45:20 10° NNE 20:48:34 29° ENE 20:51:15 13° SE
Cosmos 2056 Rocket 4.3 20:46:13 10° SSE 20:50:55 31° E 20:55:37 10° NE
SL-8 Rocket 4.3 20:44:57 10° SSE 20:50:56 47° E 20:56:55 10° NNE
USA 186 0.7 20:54:09 12° SSE 20:56:10 80° ENE 20:58:29 10° N
Meteor 2-3 Rocket 3.7 20:52:26 10° N 20:58:04 83° E 21:03:45 10° S
Cosmos 1633 Rocket 3.4 20:55:24 10° NNW 20:59:43 68° W 21:04:02 10° S
Cosmos 1980 3.7 20:54:22 10° SSW 21:00:03 84° ESE 21:05:46 10° NNE
SJ-6B 3.9 20:56:11 10° S 21:00:04 47° W 21:03:53 10° NNW
ERS-2 2.4 20:56:55 10° S 21:00:33 69° WSW 21:04:13 10° NNW
Centaur D-1A AC-31 3.5 20:44:20 10° SW 21:01:16 27° S 21:05:15 15° SE
YAOGAN 6 2.6 21:01:29 10° S 21:05:05 86° WSW 21:08:46 10° NNW
ATLAS CENTAUR R/B 3.0 21:02:13 10° WSW 21:05:34 33° NW 21:09:04 10° NNE
Cosmos 2098 Rocket 3.6 21:02:28 10° SSE 21:06:41 34° E 21:10:09 10° NNE
ATLAS 2AS CENTAUR R/B 3.0 20:59:19 10° NW 21:07:13 84° WSW 21:13:55 12° SSE
Cosmos 1624 Rocket 4.2 21:02:30 10° S 21:07:26 46° ESE 21:12:22 10° NNE
Cosmos 1869 3.7 21:04:25 10° SSE 21:08:12 42° E 21:12:02 10° NNE
Cosmos 1455 3.2 21:06:17 10° SSW 21:10:00 50° W 21:13:47 10° N
Cosmos 1844 Rocket 4.2 21:05:15 10° NW 21:10:20 34° WSW 21:15:21 10° SSW
Cosmos 1515 Rocket 3.5 21:06:48 10° S 21:11:16 86° E 21:15:45 10° N
CZ-4C R/B 4.0 21:16:07 12° ENE 21:16:07 12° ENE 21:16:55 10° ENE
Cosmos 1939 Rocket 3.0 21:10:31 10° S 21:14:22 72° WSW 21:18:17 10° NNW
Cosmos 2333 Rocket 3.4 21:10:11 10° SW 21:15:35 45° WNW 21:21:01 10° N
Cosmos 405 4.2 21:13:03 10° NNE 21:15:57 24° ENE 21:16:19 23° E
Cosmos 1441 Rocket 4.4 21:16:44 22° E 21:16:44 22° E 21:19:27 10° NE
Spot 2 Rocket 3.4 21:14:33 13° SSE 21:19:05 76° ENE 21:24:10 10° N
Thor Agena Rocket 4.3 21:14:15 10° N 21:19:23 57° WNW 21:24:32 10° SSW
Cosmos 864 Rocket 4.5 21:15:25 10° S 21:21:24 59° E 21:27:24 10° NNE
Cosmos 2219 Rocket 4.0 21:16:55 10° SW 21:22:02 34° WNW 21:27:10 10° N
Cosmos 2228 Rocket 3.5 21:22:16 10° SSW 21:26:36 63° W 21:30:59 10° N
Cosmos 2237 Rocket 2.7 21:21:20 10° SSW 21:26:53 63° WNW 21:32:29 10° NNE
NOSS 3-4 (A) 4.1 21:30:50 10° NNW 21:37:47 57° NE 21:41:47 28° ESE
NOSS 3-4 (C) 4.1 21:30:56 10° NNW 21:37:53 56° NE 21:41:52 28° ESE
Cosmos 2278 Rocket 2.5 21:32:49 10° NNW 21:38:27 64° WSW 21:42:32 19° S
NOAA 11 4.2 21:36:14 17° S 21:40:31 81° WSW 21:46:03 10° NNW
BREEZE-M DEB (TANK) 3.0 21:39:09 10° NW 21:41:43 32° NNE 21:41:43 32° NNE
Cosmos 405 Rocket 2.9 21:48:48 52° E 21:48:48 52° E 21:52:28 10° NNE
CZ-4B DEB 4.5 21:48:55 55° S 21:49:35 78° WSW 21:53:06 10° NNW
ERS-1 Rocket 3.5 21:49:58 37° E 21:50:55 41° ENE 21:55:37 10° N
Resurs 01 Rocket 3.2 21:49:19 10° SSW 21:53:19 32° W 21:57:19 10° NNW
Cosmos 1825 3.4 21:50:49 10° NNW 21:54:23 40° W 21:56:24 21° SSW
ASTRO E2 4.2 21:51:13 10° SW 21:53:29 23° SSW 21:53:29 23° SSW
Terra 3.9 21:56:55 14° ENE 21:56:55 14° ENE 21:58:58 10° NNE
Cosmos 407 Rocket 3.3 21:54:18 10° NNW 21:59:26 86° ENE 22:00:57 47° SSE
Cosmos 1862 3.2 21:57:14 10° N 22:01:11 67° ENE 22:01:11 67° ENE
Cosmos 1821 Rocket 4.3 22:02:00 41° ESE 22:03:09 45° E 22:09:06 10° NNE
Cosmos 1727 Rocket 3.9 21:57:31 10° N 22:03:43 86° W 22:06:52 31° S
SPOT 1/Viking Rocket 4.3 22:07:19 35° ENE 22:07:31 35° ENE 22:12:14 10° N
MetOp-B 4.0 22:09:00 52° SSE 22:10:21 81° ENE 22:15:43 10° N
USA 81 4.0 22:05:34 10° N 22:10:51 84° W 22:12:31 45° S
ARGOS 3.1 22:10:29 47° S 22:12:05 86° WSW 22:17:29 10° NNW
H-2A R/B 1.8 22:14:36 65° SE 22:15:19 80° ENE 22:20:18 10° N
Cosmos 1943 Rocket 4.0 22:13:22 10° NNE 22:16:38 16° NE 22:17:12 15° ENE
ATLAS 2A CENTAUR R/B 4.0 22:01:11 10° WSW 22:18:21 42° S 22:20:59 37° SSE
SL-16 R/B 2.7 22:13:04 10° SW 22:18:38 59° WNW 22:24:14 10° NNE
Cosmos 676 Rocket 3.8 22:16:50 10° NNW 22:22:07 85° ENE 22:22:34 74° SE
SL-08 RB Rocket 3.5 22:22:04 83° SW 22:22:08 84° WSW 22:26:38 10° NNW
Cosmos 1023 Rocket 4.3 22:19:46 10° NNW 22:24:56 76° ENE 22:25:04 76° E
SPOT 5 3.3 22:26:17 47° NE 22:26:17 47° NE 22:29:53 10° N
Cosmos 1707 Rocket 3.6 22:25:48 72° WNW 22:25:48 72° WNW 22:30:04 10° N
Lacrosse 5 3.6 22:21:53 10° NNW 22:25:48 22° NNE 22:26:57 20° NE
Helios 1A 3.5 22:27:42 51° NNE 22:27:42 51° NNE 22:31:00 10° N
Cosmos 2344 3.5 22:22:30 10° SSW 22:30:09 87° ESE 22:38:23 10° NE
Cosmos 1452 Rocket 3.5 22:32:27 58° SW 22:33:27 79° WNW 22:38:43 10° NNE
Cosmos 1535 Rocket 4.4 22:34:42 65° ESE 22:35:13 68° E 22:41:33 10° NNE
Cosmos 1869 Rocket 4.4 22:32:00 10° NNW 22:36:09 44° W 22:36:20 44° W
SL-19 R/B 4.4 22:36:44 57° ENE 22:36:44 57° ENE 22:42:10 10° N
Cosmos 1733 Rocket 4.3 22:41:17 10° N 22:43:58 35° NNE 22:43:58 35° NNE
Cosmos 1603 3.9 22:46:57 58° NE 22:46:57 58° NE 22:51:29 10° NNE
Cosmos 1140 Rocket 3.7 22:43:02 10° NNW 22:47:57 65° W 22:47:57 65° W
Cosmos 1605 Rocket 4.4 22:54:29 51° ENE 22:54:29 51° ENE 22:59:48 10° NNE
BREEZE-M DEB (TANK) 4.4 22:25:01 10° WNW 22:54:36 73° NNE 22:56:50 50° E
Cosmos 2369 Rocket 3.0 22:50:46 10° N 22:55:29 41° NE 22:55:29 41° NE
CZ-4C R/B 2.4 23:01:07 62° WNW 23:01:24 63° NW 23:07:14 10° NNE
CZ-2C R/B 4.5 23:00:26 10° NNE 23:02:18 20° NE 23:02:18 20° NE
ATLAS 5 CENTAUR R/B 3.0 23:11:56 10° NNW 23:17:14 49° NE 23:17:14 49° NE
Cosmos 1934 Rocket 4.2 23:18:29 62° W 23:18:29 62° W 23:24:30 10° N
USA 267 3.3 23:24:28 10° NE 23:31:00 74° NW 23:31:49 66° W
Terra 3.4 23:35:48 33° NNW 23:35:48 33° NNW 23:38:30 10° NNW
CZ-2C R/B 4.5 23:39:46 31° N 23:39:46 31° N 23:42:17 10° NNW
